Location: Bouillancy
(49.1149°N, 2.9308°E)
Time: 08:05:03
(UTC+00:00)

Cosmos 1833 Rocket - Pass Details

Date: 30 September 2020
Orbit: 831 x 841 km, 71.0° (Epoch: 29 October)

Event Time Altitude Azimuth Distance (km) Brightness Sun altitude
Rises 18:21:59 0° 332° (NNW) 3,408 6.4 -9.6°
Reaches altitude 10° 18:24:29 10° 336° (NNW) 2,470 5.6 -10.0°
Maximum altitude 18:30:07 64° 58° (ENE) 932 2.7 -10.9°
Drops below altitude 10° 18:35:42 10° 140° (SE) 2,452 4.7 -11.8°
Enters shadow 18:36:31 - 141° (SE) 2,760 4.9 -12.0°
